Time,TemperatureF,DewpointF,PressureIn,WindDirection,WindDirectionDegrees,WindSpeedMPH,WindSpeedGustMPH,Humidity,HourlyPrecipIn,Conditions,Clouds,dailyrainin,SoftwareType,DateUTC
2013-05-23 00:23:00,63.3,58.7,29.88,SW,225,0.0,0.0,85,0.00,,,0.00,WUHU21623XXSP,2013-05-23 04:23:00,
2013-05-23 01:23:00,63.1,58.8,29.92,West,270,2.2,2.2,86,0.00,,,0.00,WUHU21623XXSP,2013-05-23 05:23:00,
2013-05-23 02:23:00,62.2,58.0,29.88,South,180,0.0,0.0,86,0.00,,,0.00,WUHU21623XXSP,2013-05-23 06:23:00,
2013-05-23 03:23:00,62.2,58.0,29.87,South,180,0.0,0.0,86,0.00,,,0.01,WUHU21623XXSP,2013-05-23 07:23:00,
2013-05-23 04:23:00,62.2,58.3,29.86,SSW,203,0.0,0.0,87,0.00,,,0.01,WUHU21623XXSP,2013-05-23 08:23:00,
2013-05-23 05:23:00,62.4,58.5,29.87,SSW,203,0.0,0.0,87,0.00,,,0.02,WUHU21623XXSP,2013-05-23 09:23:00,
2013-05-23 06:23:00,62.4,58.5,29.87,SSW,203,0.0,0.0,87,0.00,,,0.06,WUHU21623XXSP,2013-05-23 10:23:00,
2013-05-23 07:23:00,63.0,59.4,29.89,SSW,203,0.0,0.0,88,0.00,,,0.07,WUHU21623XXSP,2013-05-23 11:23:00,
2013-05-23 08:23:00,63.7,59.8,29.89,SSW,203,0.0,0.0,87,0.00,,,0.07,WUHU21623XXSP,2013-05-23 12:23:00,
2013-05-23 09:23:00,65.3,61.3,29.91,SSW,203,0.0,0.0,87,0.00,,,0.07,WUHU21623XXSP,2013-05-23 13:23:00,
2013-05-23 10:23:00,68.7,62.7,29.91,SW,225,0.0,0.0,81,0.00,,,0.07,WUHU21623XXSP,2013-05-23 14:23:00,
2013-05-23 11:23:00,72.1,63.5,29.90,South,180,0.0,0.0,74,0.00,,,0.07,WUHU21623XXSP,2013-05-23 15:23:00,
2013-05-23 12:23:00,75.2,62.8,29.89,South,180,3.6,3.6,65,0.00,,,0.07,WUHU21623XXSP,2013-05-23 16:23:00,
2013-05-23 13:23:00,76.3,62.1,29.86,SW,225,0.0,0.0,61,0.00,,,0.07,WUHU21623XXSP,2013-05-23 17:23:00,
2013-05-23 14:23:00,78.1,60.3,29.83,SSW,203,0.0,0.0,54,0.00,,,0.07,WUHU21623XXSP,2013-05-23 18:23:00,
2013-05-23 15:23:00,77.4,59.6,29.82,SSW,203,0.0,0.0,54,0.00,,,0.07,WUHU21623XXSP,2013-05-23 19:23:00,
2013-05-23 16:23:00,62.8,55.9,29.85,SSE,158,0.0,0.0,78,0.00,,,0.07,WUHU21623XXSP,2013-05-23 20:23:00,
2013-05-23 17:23:00,62.8,57.3,29.84,West,270,0.0,0.0,82,0.00,,,0.19,WUHU21623XXSP,2013-05-23 21:23:00,
2013-05-23 18:23:00,64.2,59.0,29.84,West,270,0.0,0.0,83,0.00,,,0.19,WUHU21623XXSP,2013-05-23 22:23:00,
2013-05-23 19:23:00,63.3,58.4,29.85,SSW,203,0.0,0.0,84,0.00,,,0.19,WUHU21623XXSP,2013-05-23 23:23:00,
2013-05-23 20:23:00,63.3,58.7,29.84,SSW,203,2.9,2.9,85,0.00,,,0.19,WUHU21623XXSP,2013-05-24 00:23:00,
2013-05-23 21:23:00,62.2,57.6,29.85,SSW,203,0.0,0.0,85,0.00,,,0.21,WUHU21623XXSP,2013-05-24 01:23:00,
2013-05-23 22:23:00,60.6,55.8,29.88,WNW,293,0.0,0.0,84,0.00,,,0.22,WUHU21623XXSP,2013-05-24 02:23:00,
2013-05-23 23:23:00,59.9,55.4,29.89,WNW,293,0.0,0.0,85,0.00,,,0.22,WUHU21623XXSP,2013-05-24 03:23:00,